User: anonymous   Login
Location: Unspecified
(0.0000°N, 0.0000°E)
Time: 02:58:39
(UTC+00:00)
Language:

Intelsat II F-3 - Orbit

View from above orbital plane
View from above orbital plane
View from above satellite
View from above satellite

Ground track
Ground track

The orbit data is extracted from the following two-line orbital elements,

1 02717U 67026A   18171.80572215 -.00000273  00000-0  00000+0 0  9998
2 02717   3.0381 303.4500 0020352 297.8735 100.9746  1.00270588 90975
Epoch (UTC): 20 June 2018 19:20:14
Eccentricity: 0.0020352
inclination: 3.0381°
perigee height: 35701 km
apogee height: 35872 km
right ascension of ascending node: 303.4500°
argument of perigee: 297.8735°
revolutions per day: 1.00270588
mean anomaly at epoch: 100.9746°
orbit number at epoch: 9097

The dashed part of the orbit path shows where the satellite is in the earth's shadow,  

DLR